#timestamp,LO_Frequency,Hit,StdDev 
1649833215.6,286047006.7,N
1649833235.4,286047010.4,N
1649833255.3,286047008.6,N
1649833275.1,286047008.8,N
1649833295.9,286047012.1,N
1649833315.7,286047008.8,N
1649833335.5,286047007.3,N
1649833355.4,286047008.1,N
1649833375.2,286047005.4,N
1649833395.0,286047004.3,N
1649833395.9,286047004.3,N
1649833415.8,286047000.4,N
1649833435.6,286047000.7,N
1649833455.5,286046998.2,N
1649833475.3,286046999.6,N
1649833495.1,286046993.8,N
1649833515.9,286046991.9,N
1649833535.7,286046990.5,N
1649833555.5,286046990.9,N
1649833575.4,286046986.9,N
1649833595.2,286046983.8,N
1649833615.1,286046994.5,N
1649833616.0,286046994.5,N
1649833635.8,286046999.9,N
1649833655.6,286047009.9,N
1649833675.5,286047012.1,N
1649833695.3,286047013.6,N
1649833715.2,286047007.8,N
1649833735.9,286047002.7,N
1649833755.7,286046997.8,N
1649833775.6,286046991.9,N
1649833795.4,286046991.9,N
1649833815.2,286046992.9,N
1649833835.1,286046989.0,N
1649833836.0,286046989.0,N
1649833855.8,286046984.5,N
1649833875.7,286046989.3,N
1649833895.5,286046999.2,N
1649833915.3,286046996.9,N
1649833935.2,286046990.8,N
1649833955.9,286046985.7,N
1649833975.7,286046983.4,N
1649833995.6,286046979.2,N
1649834015.4,286046977.3,N
1649834035.3,286046982.2,N
1649834055.1,286046984.0,N
1649834056.0,286046984.0,N
1649834075.8,286046987.2,N
1649834095.7,286046994.7,N
1649834115.5,286046992.1,N
1649834135.3,286046994.9,N
1649834155.2,286046992.2,N
1649834175.0,286046987.5,N
1649834175.9,286046987.5,N
1649834195.8,286046989.9,N
1649834215.6,286046986.0,N
1649834235.4,286046985.2,N
1649834255.3,286046988.0,N
1649834275.1,286046988.2,N
1649834295.8,286046987.5,N
1649834315.7,286046994.0,N
1649834335.5,286046990.1,N
1649834355.4,286046994.3,N
1649834375.2,286046987.0,N
1649834395.0,286046983.2,Y
1649834395.9,286046983.2,P
1649834415.8,286046994.0,N
1649834435.6,286046995.1,N
1649834455.4,286046997.1,N
1649834475.3,286046998.5,N
1649834495.1,286046995.8,N
1649834515.9,286046997.0,N
1649834535.7,286046993.7,N
1649834555.5,286046996.2,N
1649834575.4,286046992.3,N
1649834595.2,286046992.1,N
1649834615.0,286046988.5,N
1649834615.9,286046988.5,N
1649834635.8,286046995.8,N
1649834655.6,286047000.3,N
1649834675.5,286047008.5,N
1649834695.3,286047005.4,N
1649834715.1,286047003.7,N
1649834735.9,286046999.2,N
1649834755.7,286046993.2,N
1649834775.5,286046985.4,N
1649834795.4,286046989.7,N
1649834815.2,286046988.7,N
1649834835.1,286046989.2,N
1649834836.0,286046989.2,N
1649834855.8,286046992.2,N
1649834875.6,286046990.6,N
1649834895.5,286046993.2,N
1649834915.3,286046990.8,N
1649834935.1,286046989.0,N
1649834955.9,286046989.4,N
1649834975.7,286046987.6,N
1649834995.6,286046986.9,N
1649835015.4,286046983.7,N
1649835035.2,286046981.1,Y
1649835055.1,286046987.3,P
1649835056.0,286046987.3,P
1649835075.8,286046991.6,P
1649835095.7,286046994.8,N
1649835115.5,286046995.3,N
1649835135.3,286046996.3,N
1649835155.2,286046999.2,N
1649835175.0,286046997.1,N
1649835175.9,286046997.1,N
1649835195.8,286047002.2,N
1649835215.6,286046997.2,N
1649835235.4,286047001.9,N
1649835255.3,286047005.5,N
1649835275.1,286046998.1,N
1649835276.0,286046998.1,N
1649835295.8,286046999.3,N
1649835315.7,286047002.2,N
1649835335.5,286046997.8,N
1649835355.3,286046994.9,N
1649835375.2,286046994.6,N
1649835395.0,286046995.4,N
1649835395.9,286046995.4,N
1649835415.8,286046997.9,N
1649835435.6,286047000.0,N
1649835455.4,286047004.3,N
1649835475.3,286047003.2,N
1649835495.1,286047011.3,N
1649835515.8,286047012.6,N
1649835535.7,286047014.5,N
1649835555.5,286047010.3,N
1649835575.4,286047010.4,N
1649835595.2,286047009.3,N
1649835615.0,286047012.7,N
1649835615.9,286047012.7,N
1649835635.8,286047014.3,N
1649835655.6,286047015.0,N
1649835675.4,286047012.2,N
1649835695.3,286047016.4,N
1649835715.1,286047021.0,N
1649835735.9,286047014.1,N
1649835755.7,286047017.1,N
1649835775.5,286047011.9,N
1649835795.4,286047002.9,N
1649835815.2,286046996.8,N
1649835835.0,286046992.2,N
1649835835.9,286046992.2,N
1649835855.8,286046988.2,N
1649835875.6,286046986.4,N
1649835895.5,286046994.2,N
1649835915.3,286047003.0,N
1649835935.1,286047009.8,N
1649835955.9,286047014.5,N
1649835975.7,286047013.6,N
1649835995.5,286047008.5,N
1649836015.4,286047004.8,N
1649836035.2,286047013.4,N
1649836055.1,286047011.4,N
1649836056.0,286047011.4,N
1649836075.8,286047012.5,N
1649836095.6,286047011.1,N
1649836115.5,286047010.0,N
1649836135.3,286047008.4,N
1649836155.1,286047008.0,N
1649836175.9,286047001.8,N
1649836195.7,286046995.2,N
1649836215.6,286046991.2,N
1649836235.4,286046989.3,N
1649836255.2,286046989.0,N
1649836275.1,286046994.1,N
1649836276.0,286046994.1,N
1649836295.8,286046991.4,N
1649836315.7,286046987.4,N
1649836335.5,286046987.2,N
1649836355.3,286046985.8,N
1649836375.2,286046993.1,N
1649836395.9,286046999.6,N
1649836415.7,286046998.1,N
1649836435.6,286046997.3,N
1649836455.4,286046994.2,N
1649836475.3,286046993.1,N
1649836495.1,286046994.2,N
1649836496.0,286046994.2,N
1649836515.8,286046994.1,N
1649836535.7,286047003.8,N
1649836555.5,286047003.2,N
1649836575.3,286047006.7,N
1649836595.2,286047009.5,N
1649836615.0,286047008.4,N
1649836615.9,286047008.4,N
1649836635.8,286047005.8,N
1649836655.6,286047002.6,N
1649836675.4,286047005.7,N
1649836695.3,286047005.1,N
1649836715.1,286047004.8,N
1649836735.8,286047010.2,N
1649836755.7,286047009.0,N
1649836775.5,286047013.7,N
1649836795.4,286047009.5,N
